DW5599 Weather Reports


Display with metric or nautical units.
time (UTC)temp
F
wind
direction
speed
MPH
gust
MPH
rain 1hr
in
rain 24hr
in
rain mn
in
humidity
%
barometer
mb
20180619025103 50 28 0.0 5.0 0.00 0.00 0.00 80 1021.1
20180619023510 51 33 1.0 5.0 0.00 0.00 0.00 80 1021.0
20180619022001 51 32 0.0 6.0 0.00 0.00 0.00 78 1021.0
20180619020513 51 42 1.0 4.0 0.00 0.00 0.00 77 1021.2
20180619014957 52 44 0.0 6.0 0.00 0.00 0.00 75 1021.1
20180619013801 52 47 1.0 7.0 0.00 0.00 0.00 73 1021.2
20180619012001 53 30 1.0 5.0 0.00 0.00 0.00 71 1021.2
20180619010409 53 24 1.0 7.0 0.00 0.00 0.00 68 1021.3
20180619004900 53 30 2.0 6.0 0.00 0.00 0.00 67 1021.3
20180619003413 53 33 3.0 6.0 0.00 0.00 0.00 68 1021.5
20180619001906 53 38 2.0 7.0 0.00 0.00 0.00 69 1021.4
20180619000401 54 42 1.0 6.0 0.00 0.00 0.00 68 1021.8
20180618234906 54 25 0.0 6.0 0.00 0.00 0.00 68 1021.5
20180618233314 55 21 2.0 6.0 0.00 0.00 0.00 66 1021.8
20180618231800 55 14 0.0 5.0 0.00 0.00 0.00 66 1021.6
20180618230304 55 10 1.0 6.0 0.00 0.00 0.00 66 1021.7
20180618224758 56 355 0.0 8.0 0.00 0.00 0.00 63 1021.7
20180618223310 57 38 3.0 11.0 0.00 0.00 0.00 61 1021.6
20180618221801 57 56 4.0 9.0 0.00 0.00 0.00 59 1021.7
20180618220215 57 28 4.0 8.0 0.00 0.00 0.00 60 1021.7
20180618214808 58 34 3.0 7.0 0.00 0.00 0.00 62 1021.8
20180618213219 58 38 4.0 8.0 0.00 0.00 0.00 63 1021.8
20180618211810 58 38 3.0 7.0 0.00 0.00 0.00 66 1021.6
20180618210156 59 34 3.0 6.0 0.00 0.00 0.00 64 1022.0
20180618204755 60 21 2.0 6.0 0.00 0.00 0.00 62 1021.8
20180618203215 61 22 3.0 6.0 0.00 0.00 0.00 58 1022.0
20180618201759 61 19 3.0 8.0 0.00 0.00 0.00 57 1022.0
20180618200201 62 360 3.0 9.0 0.00 0.00 0.00 55 1022.2
20180618194756 62 32 2.0 10.0 0.00 0.00 0.00 56 1022.2
20180618193207 62 32 3.0 10.0 0.00 0.00 0.00 55 1022.3
20180618191758 62 44 4.0 10.0 0.00 0.00 0.00 52 1022.4
20180618190207 63 20 4.0 12.0 0.00 0.00 0.00 52 1022.5
20180618184457 63 360 5.0 10.0 0.00 0.00 0.00 52 1022.7
20180618183003 63 360 5.0 11.0 0.00 0.00 0.00 52 1023.2
20180618181758 62 34 5.0 11.0 0.00 0.00 0.00 52 1023.3
20180618180203 63 64 4.0 12.0 0.00 0.00 0.00 52 1023.4
20180618174455 62 20 2.0 10.0 0.00 0.00 0.00 53 1023.6
20180618172904 63 18 3.0 7.0 0.00 0.00 0.00 53 1023.7
20180618171402 62 44 4.0 13.0 0.00 0.00 0.00 53 1024.0
20180618165852 61 345 4.0 9.0 0.00 0.00 0.00 54 1024.3
20180618164413 61 15 4.0 9.0 0.00 0.00 0.00 54 1024.7
20180618162900 61 355 3.0 8.0 0.00 0.00 0.00 55 1024.9
20180618161404 60 37 4.0 9.0 0.00 0.00 0.00 56 1025.0
20180618155853 59 15 4.0 9.0 0.00 0.00 0.00 59 1025.2
20180618154301 59 11 5.0 11.0 0.00 0.00 0.00 57 1025.7
20180618152810 58 346 5.0 11.0 0.00 0.00 0.00 57 1026.0
20180618151310 58 313 4.0 9.0 0.00 0.00 0.00 58 1026.3
20180618145757 57 355 3.0 11.0 0.00 0.00 0.00 61 1026.6
20180618144257 56 43 3.0 12.0 0.00 0.00 0.00 64 1026.7
20180618142704 56 30 5.0 10.0 0.00 0.00 0.00 66 1026.8
20180618141206 55 360 4.0 10.0 0.00 0.00 0.00 67 1026.8
20180618135703 54 19 4.0 12.0 0.00 0.00 0.00 70 1026.9
20180618134205 53 355 3.0 8.0 0.00 0.00 0.00 73 1026.9
20180618132708 53 9 2.0 6.0 0.00 0.00 0.00 73 1026.8
20180618131106 51 13 0.0 8.0 0.00 0.00 0.00 74 1026.7
20180618125659 51 355 2.0 5.0 0.00 0.00 0.00 73 1026.7
20180618124102 50 344 1.0 8.0 0.00 0.00 0.00 77 1026.7
20180618122709 49 10 0.0 4.0 0.00 0.00 0.00 80 1026.5
20180618121002 48 11 0.0 5.0 0.00 0.00 0.00 84 1026.3
20180618115657 47 15 0.0 3.0 0.00 0.00 0.00 85 1026.4
20180618114004 46 15 0.0 4.0 0.00 0.00 0.00 87 1026.2
20180618112652 45 21 0.0 2.0 0.00 0.00 0.00 87 1026.1
20180618111011 45 23 0.0 1.0 0.00 0.00 0.00 87 1026.1
20180618105656 45 25 0.0 4.0 0.00 0.00 0.00 87 1025.9
20180618103905 45 23 0.0 3.0 0.00 0.00 0.00 87 1025.8
20180618102409 45 23 0.0 3.0 0.00 0.00 0.00 86 1025.8
20180618100857 45 23 0.0 3.0 0.00 0.00 0.00 86 1025.7
20180618095658 45 23 0.0 5.0 0.00 0.00 0.00 85 1025.5
20180618093904 46 22 0.0 4.0 0.00 0.00 0.00 85 1025.4
20180618092313 46 19 0.0 3.0 0.00 0.00 0.00 85 1025.2
20180618090807 46 20 0.0 3.0 0.00 0.00 0.00 84 1025.4
20180618085257 47 14 0.0 4.0 0.00 0.00 0.00 83 1025.1
20180618083810 48 360 0.0 4.0 0.00 0.00 0.00 82 1025.2
20180618082300 48 12 1.0 4.0 0.00 0.00 0.00 81 1025.2
20180618080752 48 5 1.0 4.0 0.00 0.00 0.00 81 1025.2
20180618075213 49 360 1.0 4.0 0.00 0.00 0.00 81 1025.3
20180618073811 49 355 1.0 5.0 0.00 0.00 0.00 81 1025.5
20180618072211 49 360 0.0 6.0 0.00 0.00 0.00 81 1025.7
20180618070902 49 15 0.0 5.0 0.00 0.00 0.00 82 1025.7
20180618065212 49 351 1.0 4.0 0.00 0.00 0.00 82 1025.8
20180618063802 48 355 0.0 5.0 0.00 0.00 0.00 82 1025.8
20180618062111 48 5 2.0 6.0 0.00 0.00 0.00 82 1025.8
20180618060812 48 355 0.0 5.0 0.00 0.00 0.00 81 1025.8
20180618055056 49 15 2.0 9.0 0.00 0.00 0.00 80 1025.5
20180618053756 49 337 2.0 8.0 0.00 0.00 0.00 79 1025.6
20180618052058 49 48 3.0 9.0 0.00 0.00 0.00 79 1025.8
20180618050751 49 17 2.0 9.0 0.00 0.00 0.00 79 1025.9
20180618045003 49 355 3.0 8.0 0.00 0.00 0.00 79 1026.1
20180618043759 49 17 2.0 9.0 0.00 0.00 0.00 78 1026.2
20180618042001 50 5 4.0 11.0 0.00 0.00 0.00 77 1026.0
20180618040759 50 31 4.0 12.0 0.00 0.00 0.00 77 1026.2
20180618035009 50 13 2.0 13.0 0.00 0.00 0.00 77 1026.3
20180618033406 50 355 4.0 10.0 0.00 0.00 0.00 77 1026.6
20180618031906 50 331 3.0 10.0 0.00 0.00 0.00 77 1026.6
20180618030412 50 360 5.0 11.0 0.00 0.00 0.00 76 1026.7